Home > Weather > Werl > Past weeks

Flag for Germany Weather for the Past 2 Weeks in Werl, North Rhine-Westphalia, Germany

Now
70 °F

Passing clouds.


Feels Like: 70 °F
Forecast: 53 / 73 °F
Wind: 8 mph from Southeast

Location: Dortmund / Wickede

Current Time: May 6, 2016 at 1:17:01 PM

Latest Report: May 6, 2016 at 12:20 PM


Visibility: N/A

Pressure: 29.98 "Hg

Humidity: 35%

Dew Point: 41 °F

Location of WerlLocation

Historic Weather in Werl — Graph

°F

Werl Temperature Yesterday

Maximum temperature yesterday: 66 °F (at 3:50 PM)
Minimum temperature yesterday: 37 °F (at 6:20 AM)
Average temperature yesterday: 57 °F

High & Low Weather Summary for the Past Weeks

 TemperatureHumidityPressure
High68 °F (May 6, 11:50 AM)93% (Apr 24, 4:50 PM)30.42 "Hg (Apr 24, 4:50 PM)
Low34 °F (Apr 24, 4:20 PM)31% (May 4, 5:50 PM)29.45 "Hg (Apr 26, 1:50 PM)
Average47 °F64%30.02 "Hg
* Reported Apr 21 11:20 AM — May 6 11:50 AM, Werl, Weather by CustomWeather, © 2016

Note: Actual official high and low records may vary slightly from our data, if they occured in-between our weather recording intervals... More about our weather records

Advertising

Werl Weather History for the Previous 24 Hours

Scroll right to see more
 ConditionsComfort  
Time TempWeatherWind HumidityBarometerVisibility
11:50 AM
Fri, May 6
68 °FPassing clouds.8 mph40%29.98 "HgN/A
11:20 AM66 °FPassing clouds.8 mph43%29.98 "HgN/A
10:50 AM64 °FPassing clouds.9 mph49%29.98 "HgN/A
10:20 AM63 °FPassing clouds.10 mph52%30.01 "HgN/A
9:50 AM61 °FSunny.9 mph55%30.01 "Hg10 mi
9:20 AM59 °FPassing clouds.5 mph68%30.01 "HgN/A
8:50 AM55 °FSunny.3 mph72%30.01 "Hg10 mi
8:20 AM52 °FSunny.3 mph77%30.04 "Hg10 mi
7:50 AM50 °FSunny.2 mph76%30.04 "Hg10 mi
7:20 AM48 °FSunny.2 mph82%30.04 "Hg10 mi
6:50 AM46 °FClear.6 mph82%30.04 "Hg10 mi
6:20 AM46 °FClear.8 mph82%30.04 "Hg10 mi
5:50 AM45 °FClear.8 mph81%30.04 "Hg10 mi
5:20 AM46 °FClear.6 mph82%30.07 "Hg10 mi
9:50 PM
Thu, May 5
57 °FSunny.8 mph55%30.12 "Hg10 mi
9:20 PM57 °FSunny.8 mph51%30.12 "Hg10 mi
8:50 PM59 °FSunny.8 mph48%30.12 "Hg10 mi
8:20 PM63 °FSunny.8 mph42%30.12 "Hg10 mi
7:50 PM63 °FPassing clouds.7 mph42%30.12 "HgN/A
7:20 PM64 °FPassing clouds.10 mph37%30.12 "HgN/A
6:50 PM66 °FPassing clouds.10 mph35%30.12 "HgN/A
6:20 PM66 °FPassing clouds.10 mph35%30.15 "HgN/A
5:50 PM66 °FPassing clouds.8 mph32%30.15 "HgN/A
5:20 PM66 °FPassing clouds.10 mph32%30.15 "HgN/A
4:50 PM66 °FPassing clouds.10 mph32%30.18 "HgN/A
4:20 PM66 °FPassing clouds.13 mph32%30.18 "HgN/A
3:50 PM66 °FPassing clouds.8 mph35%30.18 "HgN/A
3:20 PM64 °FPassing clouds.10 mph34%30.21 "HgN/A
2:50 PM63 °FPassing clouds.9 mph39%30.21 "HgN/A
2:20 PM63 °FPassing clouds.8 mph42%30.24 "HgN/A
1:50 PM63 °FSunny.9 mph37%30.24 "Hg10 mi
1:20 PM63 °FPassing clouds.7 mph37%30.24 "HgN/A
Weather by CustomWeather, © 2016

See weather overviewHow to use our weather pages